Regional Weather Roundup
Issued by NWS

Home | Current Version | Previous Version | Text Only | Print | Product List | Glossary On
Versions: 1 2 3 4 5 6 7 8 9 10 11 12 13 14 15 16 17 18 19 20 21 22 23 24 25 26 27 28 29 30 31 32 33 34 35 36 37 38 39 40 41 42 43 44 45 46 47 48 49 50
000
ASUS43 KLOT 311410
RWRIL

ILLINOIS REGIONAL WEATHER ROUNDUP
NATIONAL WEATHER SERVICE CHICAGO/ROMEOVILLE IL
900 AM CDT FRI OCT 31 2014

NOTE: "FAIR" INDICATES FEW OR NO CLOUDS BELOW 12,000 FEET WITH NO
SIGNIFICANT WEATHER AND/OR OBSTRUCTIONS TO VISIBILITY.

* THESE STATIONS ARE NOT UNDER NWS QUALITY CONTROL. THEY ALSO MAY NOT
  REPORT WEATHER SUCH AS PRECIPITATION OR FOG.

ILZ001-002-007-009-015-016-024-311500-
NORTHWEST ILLINOIS

CITY           SKY/WX    TMP DP  RH WIND       PRES   REMARKS
MOLINE         SUNNY     34  21  59 N14       30.30R WCI  25
STERLING*      CLOUDY    36  23  60 N23G30    30.25R WCI  24
SAVANNA*       SUNNY     36  22  57 N15G22    30.28R WCI  27
$$

ILZ003-004-008-010-011-017-018-311500-
NORTH CENTRAL ILLINOIS

CITY           SKY/WX    TMP DP  RH WIND       PRES   REMARKS
ROCKFORD       PTSUNNY   36  24  62 N22G32    30.24R WCI  25
FREEPORT*      CLOUDY    34  22  61 N22G36    30.27R WCI  22
ROCHELLE*      CLOUDY    35  26  69 N22G36    30.21R WCI  24
DE KALB*       CLOUDY    34  27  75 N21G29    30.18R WCI  22
PERU*          MOSUNNY   38  28  69 N24G32    30.21R WCI  26
$$

ILZ005-006-012>014-019>023-311500-
NORTHEAST ILLINOIS

CITY           SKY/WX    TMP DP  RH WIND       PRES   REMARKS
CHICAGO-OHARE  PTSUNNY   37  31  78 N20G30    30.11R WCI  27
CHICAGO-MIDWAY PTSUNNY   39  30  70 N21G36    30.11R WCI  29
AURORA         PTSUNNY   37  29  72 N26G36    30.16R WCI  25
LANSING*       LGT RAIN  37  31  82 NW16G25   30.09S WCI  27
JOLIET*        CLOUDY    36  31  83 N13G22    30.14S WCI  27
WAUKEGAN       CLOUDY    36  28  73 NW15G26   30.12R WCI  27
DUPAGE AIRPORT PTSUNNY   37  30  75 NW23G30   30.14R WCI  26
KANKAKEE*      CLOUDY    38  29  71 NW18G24   30.12R WCI  28
WHEELING       PTSUNNY   38  30  73 N21G31    30.14R WCI  28
MORRIS*        CLOUDY    36  32  84 N14G20    30.15R WCI  27
ROMEOVILLE*    CLOUDY    36  30  78 N17G24    30.13R WCI  26
NORTHERLY ISL    N/A     39  31  73 W16         N/A  WCI  30
$$

LMZ740>746-311500-
SOUTHERN LAKE MICHIGAN

STATION/POSITION SKY/WX   TEMP    WIND        PRES    VSBY  WAVE
                          AIR SEA DIR/SP/G                  HT/PER
                          (F)     (DEG/KT/KT) (MB)    (MI)  (FT/S)
SOUTHERN BUOY              40 52  330/ 37/ 47 1016.2R        12/ 8
WAUKEGAN HARBOR            37     330/ 17/ 28   N/A
HARRISON CRIB              38     320/ 26/ 31   N/A
BURNHAM HARBOR             39     310/ 14/ 24   N/A
CALUMET HARBOR             37     290/ 12/ 20 1017.4F
MICHIGAN CITY              39     340/ 33/ 40   N/A
$$

ILZ025>027-034>036-040-047-049-050-058-095>099-311500-
WEST-CENTRAL ILLINOIS

CITY           SKY/WX    TMP DP  RH WIND       PRES   REMARKS
QUINCY         SUNNY     34  20  56 N16       30.32R WCI  24
GALESBURG*     MOSUNNY   33  23  68 NW18G24   30.29R WCI  21
MACOMB*        SUNNY     34  22  61 N21G31    30.32R WCI  22
JACKSONVILLE*  SUNNY     38  24  55 N26G32    30.27R WCI  27
PITTSFIELD*    SUNNY     36  22  56 N22G28    30.30R WCI  25
$$

ILZ028>032-037-038-041>044-048-051>054-059>061-311500-
CENTRAL ILLINOIS

CITY           SKY/WX    TMP DP  RH WIND       PRES   REMARKS
PONTIAC        CLOUDY    37  29  73 N21G30    30.18R WCI  26
BLOOMINGTON    PTSUNNY   36  26  67 NW24      30.18R WCI  24
DECATUR        PTSUNNY   37  23  56 NW22G32   30.19R WCI  26
PEORIA         CLOUDY    37  24  59 N15G24    30.24R WCI  28
LACON*         CLOUDY    35  26  67 N16G22    30.22R WCI  26
LINCOLN*       MOSUNNY   38  25  60 N15G25    30.22R WCI  29
SPRINGFIELD    PTSUNNY   39  22  50 N26G40    30.23R WCI  28
TAYLORVILLE    CLOUDY    37  27  65 N28G36    30.21R WCI  25
$$

ILZ033-039-045-046-055>057-062-063-311500-
EAST-CENTRAL ILLINOIS

CITY           SKY/WX    TMP DP  RH WIND       PRES   REMARKS
CHAMPAIGN      CLOUDY    37  28  70 NW23G39   30.13R WCI  26
DANVILLE*      CLOUDY    38  33  81 NW14G23   30.06R WCI  30
RANTOUL*       CLOUDY    38  29  69 NW20G26   30.13R WCI  28
MATTOON        CLOUDY    38  29  70 NW21G38   30.13R WCI  28
PARIS*         CLOUDY    41  35  81 NW28G35   30.10R
$$

ILZ079-100>102-311500-
SOUTHWEST ILLINOIS

CITY           SKY/WX    TMP DP  RH WIND       PRES   REMARKS
ALTON          PTSUNNY   43  28  56 N18G29    30.23R
BELLEVILLE     PTSUNNY   46  35  66 NW16G25   30.19R
CAHOKIA*       MOSUNNY   46  30  53 N26G33    30.23R
SPARTA*        CLOUDY    46  38  74 N22G31    30.18R
$$

ILZ064>066-069>071-074>076-080>082-084>086-088>090-092>094-311500-
SOUTH-CENTRAL ILLINOIS

CITY           SKY/WX    TMP DP  RH WIND       PRES   REMARKS
CARBONDALE     CLOUDY    49  41  74 N17G24    30.16R
CAIRO*         CLOUDY    53  46  77 N15G24    30.13R
EFFINGHAM*     CLOUDY    42  29  59 NW24G38   30.15R
MT. VERNON     CLOUDY    46  37  71 N7        30.14R
CENTRALIA*     CLOUDY    45  34  67 NW20      30.16R
SALEM*         CLOUDY    46  38  75 NW28G33   30.17R
METROPOLIS*    CLOUDY    51  47  88 N12       30.11R
$$

ILZ067-068-072-073-078-083-087-091-311500-
SOUTHEAST ILLINOIS

CITY           SKY/WX    TMP DP  RH WIND       PRES   REMARKS
LAWRENCEVILLE  CLOUDY    46  41  82 NW29G37   30.09R
FLORA*         MOSUNNY   44  36  72 N20G31    30.14R
FAIRFIELD*     CLOUDY    47  42  82 NW12G23   30.11R
HARRISBURG*    CLOUDY    49  44  83 NW12G21   30.13R
ROBINSON*      CLOUDY    45  38  77 N26       30.11R
CARMI*         CLOUDY    49  46  90 NW16G22   30.10R
$$

ABBREVIATIONS USED IN REMARKS
   TC - TEMPERATURE IN CELSIUS
  WCI - WIND CHILL INDEX
   HX - HEAT INDEX
  VSB - VISIBILITY
$$




USA.gov is the U.S. government's official web portal to all federal, state and local government web resources and services.